カタログに戻る

DELTA 1 DEB

運用中UNKNOWN
NORAD 9979·DEBRIS·🇺🇸 United States

打ち上げ Nov 6, 1973 から Vandenberg Space Force Base

Loading…

次のパス (今後24時間)

TLE

最新Source: Space-Track

元期: Sep 13, 2026, 13:35 UTC

1  9979U 73086GJ  26256.56634586 -.00000369  00000-0 -49536-2 0  9991
2  9979 101.9310 161.3833 0584551 195.9465 292.5005 11.50897801530082

AllMySatでDELTA 1 DEBをリアルタイム追跡

Download on the App Store